GW6705 Weather Reports


time (UTC)temp
C
wind
direction
speed
KPH
gust
KPH
rain 1hr
cm
rain 24hr
cm
rain mn
cm
humidity
%
barometer
mb
20260502130451 7 98 3.2 6.4 0.00 0.00 0.00 37 1018.9
20260502123434 7 82 3.2 4.8 0.00 0.00 0.00 38 1018.5
20260502122931 7 96 4.8 6.4 0.00 0.00 0.00 37 1018.6
20260502122427 7 87 3.2 4.8 0.00 0.00 0.00 37 1018.5
20260502121925 7 88 3.2 4.8 0.00 0.00 0.00 37 1018.6
20260502121422 7 95 3.2 4.8 0.00 0.00 0.00 37 1018.6
20260502120920 7 87 3.2 4.8 0.00 0.00 0.00 37 1018.4
20260502120416 7 95 3.2 4.8 0.00 0.00 0.00 37 1018.4
20260502115913 8 81 3.2 4.8 0.00 0.00 0.00 37 1018.4
20260502115410 8 87 3.2 4.8 0.00 0.00 0.00 37 1018.4
20260502114906 8 93 4.8 4.8 0.00 0.00 0.00 38 1018.4
20260502114403 8 80 4.8 4.8 0.00 0.00 0.00 38 1018.5
20260502113900 8 87 4.8 6.4 0.00 0.00 0.00 38 1018.3
20260502113358 8 98 3.2 4.8 0.00 0.00 0.00 38 1018.6
20260502112856 8 92 4.8 6.4 0.00 0.00 0.00 38 1018.3
20260502112353 8 106 4.8 6.4 0.00 0.00 0.00 38 1018.4
20260502111851 8 92 4.8 4.8 0.00 0.00 0.00 38 1018.4
20260502111348 8 102 3.2 6.4 0.00 0.00 0.00 39 1018.5
20260502110845 8 95 4.8 6.4 0.00 0.00 0.00 39 1018.4
20260502110343 7 99 3.2 6.4 0.00 0.00 0.00 39 1018.4
20260502105840 8 84 3.2 4.8 0.00 0.00 0.00 38 1018.5
20260502105337 8 48 3.2 4.8 0.00 0.00 0.00 38 1018.4
20260502104835 8 72 3.2 4.8 0.00 0.00 0.00 38 1018.4
20260502104332 8 78 1.6 4.8 0.00 0.00 0.00 37 1018.3
20260502103829 8 98 3.2 3.2 0.00 0.00 0.00 37 1018.1
20260502103326 8 89 4.8 6.4 0.00 0.00 0.00 37 1018.4
20260502102824 8 97 3.2 6.4 0.00 0.00 0.00 37 1018.4
20260502102320 8 88 3.2 4.8 0.00 0.00 0.00 36 1018.5
20260502101818 9 110 1.6 4.8 0.00 0.00 0.00 36 1018.6
20260502101316 9 80 6.4 6.4 0.00 0.00 0.00 36 1018.1
20260502100814 9 100 3.2 6.4 0.00 0.00 0.00 36 1018.3
20260502100313 9 72 4.8 4.8 0.00 0.00 0.00 36 1018.3
20260502091247 9 126 4.8 4.8 0.00 0.00 0.00 36 1018.4
20260502090744 9 112 3.2 6.4 0.00 0.00 0.00 35 1018.5
20260502090240 9 93 3.2 4.8 0.00 0.00 0.00 35 1018.4
20260502071141 9 89 4.8 4.8 0.00 0.00 0.00 35 1018.5
20260502070639 10 116 3.2 6.4 0.00 0.00 0.00 34 1018.7
20260502070137 10 111 4.8 4.8 0.00 0.00 0.00 34 1018.5
20260502065635 10 96 3.2 4.8 0.00 0.00 0.00 33 1018.5
20260502065132 10 87 3.2 4.8 0.00 0.00 0.00 33 1018.7
20260502064631 10 93 4.8 4.8 0.00 0.00 0.00 34 1018.6
20260502064128 10 86 3.2 4.8 0.00 0.00 0.00 33 1018.6
20260502063626 10 94 4.8 4.8 0.00 0.00 0.00 33 1018.6
20260502063123 10 62 3.2 3.2 0.00 0.00 0.00 33 1018.7
20260502062620 10 42 1.6 3.2 0.00 0.00 0.00 33 1018.7
20260502062118 10 132 4.8 4.8 0.00 0.00 0.00 33 1018.5
20260502061616 10 94 3.2 6.4 0.00 0.00 0.00 33 1018.4
20260502061113 10 122 1.6 6.4 0.00 0.00 0.00 32 1018.5
20260502060613 10 138 3.2 6.4 0.00 0.00 0.00 32 1018.4
20260502060110 10 98 3.2 4.8 0.00 0.00 0.00 32 1018.4
20260502055608 10 110 3.2 4.8 0.00 0.00 0.00 32 1018.4
20260502055106 10 122 3.2 3.2 0.00 0.00 0.00 31 1018.3
20260502054604 10 128 4.8 6.4 0.00 0.00 0.00 30 1018.5
20260502054101 11 103 3.2 4.8 0.00 0.00 0.00 30 1018.4
20260502053558 11 99 3.2 4.8 0.00 0.00 0.00 30 1018.3
20260502053055 11 106 4.8 6.4 0.00 0.00 0.00 29 1018.4
20260502052554 11 91 3.2 4.8 0.00 0.00 0.00 28 1018.3
20260502052052 12 93 1.6 4.8 0.00 0.00 0.00 28 1018.3
20260502051549 12 101 1.6 6.4 0.00 0.00 0.00 28 1018.1
20260502051047 12 95 3.2 4.8 0.00 0.00 0.00 28 1018.3
20260502050543 12 79 3.2 4.8 0.00 0.00 0.00 27 1017.9
20260502050040 12 120 4.8 4.8 0.00 0.00 0.00 27 1018.3
20260502045537 12 78 3.2 6.4 0.00 0.00 0.00 27 1018.0
20260502045034 12 116 4.8 4.8 0.00 0.00 0.00 27 1018.0
20260502044530 12 88 3.2 4.8 0.00 0.00 0.00 27 1017.9
20260502044027 12 83 3.2 4.8 0.00 0.00 0.00 27 1017.5
20260502043525 12 91 3.2 3.2 0.00 0.00 0.00 27 1017.7
20260502043021 12 344 1.6 3.2 0.00 0.00 0.00 27 1017.5
20260502042516 12 76 3.2 4.8 0.00 0.00 0.00 27 1017.5
20260502042014 12 93 3.2 4.8 0.00 0.00 0.00 27 1017.4
20260502041511 12 98 3.2 4.8 0.00 0.00 0.00 27 1017.5
20260502041008 12 93 3.2 4.8 0.00 0.00 0.00 27 1017.3
20260502040505 12 88 3.2 3.2 0.00 0.00 0.00 27 1017.3
20260502040001 13 103 1.6 3.2 0.00 0.00 0.00 27 1017.2
20260502035457 13 50 1.6 3.2 0.00 0.00 0.00 26 1017.3
20260502034955 13 85 1.6 3.2 0.00 0.00 0.00 26 1017.0
20260502034453 13 91 0.0 3.2 0.00 0.00 0.00 25 1017.2
20260502033951 14 89 0.0 3.2 0.00 0.00 0.00 25 1017.0
20260502033448 14 62 0.0 4.8 0.00 0.00 0.00 24 1017.0
20260502032945 15 108 1.6 3.2 0.00 0.00 0.00 24 1016.7
20260502032442 15 46 0.0 4.8 0.00 0.00 0.00 24 1016.6
20260502031939 15 336 1.6 3.2 0.00 0.00 0.00 24 1016.6
20260502031437 15 344 3.2 6.4 0.00 0.00 0.00 23 1016.7
20260502030935 15 30 3.2 6.4 0.00 0.00 0.00 23 1016.7
20260502030433 16 321 6.4 12.9 0.00 0.00 0.00 23 1016.4
20260502025931 16 305 8.0 11.3 0.00 0.00 0.00 23 1016.4
20260502025427 16 341 3.2 9.7 0.00 0.00 0.00 23 1016.4
20260502024925 16 345 8.0 11.3 0.00 0.00 0.00 23 1016.2
20260502024423 16 333 8.0 11.3 0.00 0.00 0.00 22 1016.1
20260502023921 16 329 4.8 16.1 0.00 0.00 0.00 22 1016.1
20260502023418 17 353 6.4 11.3 0.00 0.00 0.00 21 1015.9
20260502022916 17 338 6.4 11.3 0.00 0.00 0.00 20 1015.9
20260502022412 17 353 4.8 6.4 0.00 0.00 0.00 20 1015.4
20260502021909 17 331 4.8 4.8 0.00 0.00 0.00 21 1015.5
20260502021406 18 77 0.0 3.2 0.00 0.00 0.00 21 1015.4
20260502020903 18 87 0.0 3.2 0.00 0.00 0.00 21 1015.2
20260502020401 20 24 1.6 3.2 0.00 0.00 0.00 19 1015.4
20260502015858 20 272 1.6 4.8 0.00 0.00 0.00 19 1015.1
20260502015355 20 135 4.8 4.8 0.00 0.00 0.00 19 1015.3
20260502014852 20 63 0.0 1.6 0.00 0.00 0.00 18 1015.2
20260502014349 20 262 3.2 3.2 0.00 0.00 0.00 18 1015.2
20260502013845 20 229 0.0 3.2 0.00 0.00 0.00 18 1015.1
20260502013341 19 215 3.2 3.2 0.00 0.00 0.00 19 1014.8
20260502012837 18 338 0.0 3.2 0.00 0.00 0.00 19 1014.9
20260502012336 18 93 1.6 3.2 0.00 0.00 0.00 20 1015.1
20260502011832 18 49 0.0 6.4 0.00 0.00 0.00 20 1014.8
20260502011328 18 309 0.0 6.4 0.00 0.00 0.00 20 1014.9
20260502010826 18 280 0.0 3.2 0.00 0.00 0.00 19 1014.9
20260502010322 18 325 3.2 4.8 0.00 0.00 0.00 20 1014.7
20260502005819 18 306 1.6 4.8 0.00 0.00 0.00 20 1014.6
20260502005317 18 335 3.2 4.8 0.00 0.00 0.00 20 1014.8
20260502004814 18 0 4.8 11.3 0.00 0.00 0.00 19 1014.7
20260502004310 19 305 3.2 4.8 0.00 0.00 0.00 19 1014.6
20260502003808 19 325 3.2 8.0 0.00 0.00 0.00 19 1014.6
20260502003305 19 227 4.8 6.4 0.00 0.00 0.00 19 1014.7
20260502002800 19 325 3.2 8.0 0.00 0.00 0.00 20 1014.5
20260502002258 19 287 9.7 14.5 0.00 0.00 0.00 19 1014.7
20260502001755 20 320 4.8 9.7 0.00 0.00 0.00 19 1014.7
20260502001254 20 239 3.2 9.7 0.00 0.00 0.00 19 1014.8
20260502000751 20 0 4.8 4.8 0.00 0.00 0.00 19 1014.6
20260502000249 20 334 3.2 4.8 0.00 0.00 0.00 19 1014.8
20260501235744 20 24 3.2 8.0 0.00 0.00 0.00 20 1014.7
20260501235240 20 335 3.2 11.3 0.00 0.00 0.00 19 1014.5
20260501234736 21 314 4.8 11.3 0.00 0.00 0.00 19 1014.6
20260501234233 20 315 3.2 11.3 0.00 0.00 0.00 19 1014.6
20260501233731 20 4 4.8 8.0 0.00 0.00 0.00 19 1014.6
20260501233229 20 284 0.0 4.8 0.00 0.00 0.00 20 1014.6
20260501232724 20 9 0.0 4.8 0.00 0.00 0.00 20 1014.6
20260501232222 20 287 0.0 3.2 0.00 0.00 0.00 20 1014.6
20260501231719 19 20 3.2 4.8 0.00 0.00 0.00 20 1014.5
20260501231217 19 329 1.6 6.4 0.00 0.00 0.00 21 1014.6
20260501230715 19 37 1.6 3.2 0.00 0.00 0.00 20 1014.8
20260501230214 19 279 3.2 4.8 0.00 0.00 0.00 20 1014.6
20260501225711 19 344 4.8 9.7 0.00 0.00 0.00 20 1014.7
20260501225208 19 328 8.0 8.0 0.00 0.00 0.00 20 1014.9
20260501224703 19 300 1.6 6.4 0.00 0.00 0.00 20 1014.8
20260501224201 19 326 3.2 8.0 0.00 0.00 0.00 20 1014.7
20260501223657 19 312 3.2 4.8 0.00 0.00 0.00 20 1014.8
20260501223154 19 323 4.8 9.7 0.00 0.00 0.00 20 1015.1
20260501222650 19 347 4.8 9.7 0.00 0.00 0.00 21 1014.9
20260501222147 19 287 6.4 9.7 0.00 0.00 0.00 20 1014.9
20260501221644 19 4 1.6 4.8 0.00 0.00 0.00 20 1014.9
20260501221141 19 235 9.7 11.3 0.00 0.00 0.00 19 1015.1
20260501220639 20 220 9.7 9.7 0.00 0.00 0.00 19 1015.3
20260501220136 20 193 0.0 9.7 0.00 0.00 0.00 20 1015.3
20260501215633 20 182 3.2 9.7 0.00 0.00 0.00 19 1015.1
20260501215128 20 262 4.8 9.7 0.00 0.00 0.00 19 1015.2
20260501214623 20 236 3.2 11.3 0.00 0.00 0.00 19 1015.2
20260501214119 21 256 4.8 17.7 0.00 0.00 0.00 18 1015.4
20260501213616 22 176 1.6 12.9 0.00 0.00 0.00 17 1015.3
20260501213112 21 205 6.4 16.1 0.00 0.00 0.00 18 1015.4
20260501212609 21 242 9.7 17.7 0.00 0.00 0.00 18 1015.5
20260501212105 21 275 8.0 20.9 0.00 0.00 0.00 18 1015.3
20260501211602 21 214 3.2 14.5 0.00 0.00 0.00 18 1015.4
20260501211100 20 267 9.7 11.3 0.00 0.00 0.00 18 1015.7
20260501210556 20 278 9.7 14.5 0.00 0.00 0.00 18 1015.4
20260501210053 20 254 3.2 8.0 0.00 0.00 0.00 17 1015.7
20260501205549 20 232 0.0 4.8 0.00 0.00 0.00 19 1015.7
20260501205047 20 87 3.2 3.2 0.00 0.00 0.00 19 1015.9
20260501204543 20 281 0.0 8.0 0.00 0.00 0.00 18 1015.8
20260501204039 20 311 3.2 4.8 0.00 0.00 0.00 20 1015.9
20260501203536 20 15 3.2 3.2 0.00 0.00 0.00 19 1015.9
20260501203034 19 111 3.2 3.2 0.00 0.00 0.00 21 1015.9
20260501202531 19 253 0.0 9.7 0.00 0.00 0.00 20 1016.0
20260501202027 20 256 3.2 9.7 0.00 0.00 0.00 19 1016.0
20260501201525 20 298 3.2 12.9 0.00 0.00 0.00 20 1015.9
20260501201021 20 107 6.4 6.4 0.00 0.00 0.00 21 1015.8
20260501200518 20 332 3.2 4.8 0.00 0.00 0.00 20 1015.9
20260501200015 21 238 0.0 9.7 0.00 0.00 0.00 18 1015.9
20260501195512 20 218 1.6 9.7 0.00 0.00 0.00 21 1016.0
20260501195008 18 160 0.0 4.8 0.00 0.00 0.00 22 1016.1
20260501194504 19 265 4.8 11.3 0.00 0.00 0.00 20 1016.1
20260501193959 20 355 8.0 11.3 0.00 0.00 0.00 20 1016.2
20260501193458 20 338 8.0 9.7 0.00 0.00 0.00 21 1016.2
20260501192955 20 310 1.6 3.2 0.00 0.00 0.00 22 1016.1
20260501192452 20 334 3.2 3.2 0.00 0.00 0.00 20 1016.4
20260501191950 20 246 3.2 6.4 0.00 0.00 0.00 20 1016.2
20260501191447 20 223 6.4 14.5 0.00 0.00 0.00 21 1016.2
20260501190944 20 301 3.2 11.3 0.00 0.00 0.00 20 1016.2
20260501190440 20 286 4.8 16.1 0.00 0.00 0.00 21 1016.6
20260501185935 20 307 6.4 12.9 0.00 0.00 0.00 21 1016.5
20260501185431 20 347 19.3 24.1 0.00 0.00 0.00 20 1016.4
20260501184927 19 318 3.2 8.0 0.00 0.00 0.00 21 1016.2
20260501184424 20 309 8.0 12.9 0.00 0.00 0.00 20 1016.6
20260501183918 20 306 6.4 9.7 0.00 0.00 0.00 20 1016.7
20260501183416 20 335 9.7 12.9 0.00 0.00 0.00 21 1016.7
20260501182912 20 282 3.2 6.4 0.00 0.00 0.00 21 1016.7
20260501182409 20 180 0.0 4.8 0.00 0.00 0.00 21 1016.6
20260501181906 20 260 3.2 6.4 0.00 0.00 0.00 19 1016.6
20260501181403 20 54 0.0 9.7 0.00 0.00 0.00 20 1017.0
20260501180900 20 343 6.4 9.7 0.00 0.00 0.00 22 1016.8
20260501180356 20 337 8.0 9.7 0.00 0.00 0.00 22 1017.1
20260501175854 19 284 3.2 11.3 0.00 0.00 0.00 22 1017.1
20260501175350 19 313 11.3 14.5 0.00 0.00 0.00 22 1017.0
20260501174847 19 326 3.2 8.0 0.00 0.00 0.00 22 1017.0
20260501174344 18 350 8.0 11.3 0.00 0.00 0.00 23 1016.7
20260501173842 18 348 4.8 16.1 0.00 0.00 0.00 22 1016.7
20260501173340 18 353 11.3 14.5 0.00 0.00 0.00 22 1016.8
20260501172835 18 17 3.2 11.3 0.00 0.00 0.00 23 1016.8
20260501172330 18 318 6.4 12.9 0.00 0.00 0.00 23 1016.7
20260501171826 18 319 9.7 11.3 0.00 0.00 0.00 23 1016.6
20260501171323 18 310 3.2 9.7 0.00 0.00 0.00 23 1016.8
20260501170820 18 283 4.8 9.7 0.00 0.00 0.00 23 1016.8
20260501170317 18 288 1.6 8.0 0.00 0.00 0.00 24 1016.7
20260501165814 17 305 6.4 12.9 0.00 0.00 0.00 24 1016.7
20260501165312 17 290 4.8 11.3 0.00 0.00 0.00 24 1016.6
20260501164809 17 319 8.0 12.9 0.00 0.00 0.00 25 1016.7
20260501164307 17 324 8.0 16.1 0.00 0.00 0.00 24 1016.8
20260501163802 17 350 4.8 6.4 0.00 0.00 0.00 24 1016.6
20260501163300 17 348 3.2 8.0 0.00 0.00 0.00 25 1016.6
20260501162755 16 338 3.2 8.0 0.00 0.00 0.00 26 1016.5
20260501162253 16 321 6.4 12.9 0.00 0.00 0.00 26 1016.6
20260501161749 16 278 3.2 8.0 0.00 0.00 0.00 27 1016.6
20260501161247 16 279 6.4 9.7 0.00 0.00 0.00 26 1016.5
20260501160743 15 38 6.4 6.4 0.00 0.00 0.00 26 1016.6
20260501160240 15 300 0.0 6.4 0.00 0.00 0.00 28 1016.5
20260501155737 15 314 3.2 6.4 0.00 0.00 0.00 27 1016.6
20260501155234 15 287 0.0 6.4 0.00 0.00 0.00 27 1016.4
20260501154731 15 357 6.4 6.4 0.00 0.00 0.00 28 1016.4
20260501154228 13 341 4.8 6.4 0.00 0.00 0.00 29 1016.5
20260501153726 13 331 4.8 6.4 0.00 0.00 0.00 28 1016.2
20260501153223 13 26 3.2 6.4 0.00 0.00 0.00 30 1016.1
20260501152719 12 359 1.6 6.4 0.00 0.00 0.00 30 1016.1
20260501152216 12 35 1.6 6.4 0.00 0.00 0.00 30 1016.2
20260501151714 11 318 3.2 6.4 0.00 0.00 0.00 31 1016.2
20260501151210 11 259 4.8 4.8 0.00 0.00 0.00 30 1016.1
20260501150707 10 337 1.6 6.4 0.00 0.00 0.00 30 1016.0
20260501150202 10 46 3.2 3.2 0.00 0.00 0.00 31 1016.2
20260501145658 10 34 3.2 3.2 0.00 0.00 0.00 31 1016.4
20260501145157 9 44 3.2 3.2 0.00 0.00 0.00 32 1016.1
20260501144652 8 82 1.6 4.8 0.00 0.00 0.00 30 1016.1
20260501144148 8 94 3.2 3.2 0.00 0.00 0.00 33 1016.1
20260501143644 8 86 3.2 3.2 0.00 0.00 0.00 34 1015.9
20260501143142 7 113 3.2 3.2 0.00 0.00 0.00 33 1016.0
20260501142638 7 65 3.2 4.8 0.00 0.00 0.00 33 1015.9
20260501142135 7 93 3.2 4.8 0.00 0.00 0.00 34 1016.0
20260501141630 7 98 3.2 4.8 0.00 0.00 0.00 35 1015.9
20260501141129 7 269 0.0 3.2 0.00 0.00 0.00 35 1015.8
20260501140624 7 68 3.2 4.8 0.00 0.00 0.00 34 1015.8
20260501140121 7 68 3.2 3.2 0.00 0.00 0.00 33 1015.7
20260501135618 7 48 3.2 4.8 0.00 0.00 0.00 34 1015.5
20260501135115 7 94 3.2 4.8 0.00 0.00 0.00 33 1015.5
20260501134611 7 75 6.4 6.4 0.00 0.00 0.00 33 1015.4
20260501134108 7 79 3.2 4.8 0.00 0.00 0.00 32 1015.4